{"data":{"norad_id":66446,"epoch":"2026-09-20T07:32:27.983328Z","epoch_age_seconds":109445,"freshness":"FRESH","line1":"1 66446U 25259AA  26263.31421277  .00014768  00000+0  54499-3 0  9994","line2":"2 66446  43.0038 255.4646 0002276 290.5422  69.5186 15.27585521 49255","mean_motion":15.27585521,"eccentricity":0.0002276,"inclination_deg":43.0038,"raan_deg":255.4646,"arg_perigee_deg":290.5422,"mean_anomaly_deg":69.5186,"bstar":0.00054499,"rev_number":4925,"period_min":94.266408014743,"perigee_km":481.47096203646,"apogee_km":484.59416642209,"semimajor_km":6861.1695642293,"source":"CELESTRAK","updated_at":"2026-09-21T09:00:35.911086Z"}}